DECAYED

OBJECT K, 43858 (Decayed)

Orbit data source: Space-Track

You're viewing an Uncataloged Satellite

Recently launched and/or uncataloged satellites may have evolving metadata. Metadata may include but not limited to: Owner, Maufacturer, Bus, Motor, and Mission.

OBJECT K, 43858 was an American satellite in LEO that was launched on Sun, 16 Dec 2018 UTC via an ELECTRON launch vehicle from the Rocket Lab Launch Complex (RLLC). Unknown objects in Earth's orbit typically refer to objects detected orbiting the Earth but have not yet been identified or cataloged. These objects could be anything from previously untracked satellites, spent rocket stages, debris from satellite collisions, or even natural meteoroids temporarily captured by Earth's gravity. This object's orbit decayed before it could be identified.

Not visible in the next 10 days
OBJECT K details
Identifier
43858, 2018-104K
Orbit
Decayed
Last TLE update6 months ago
Origin
Flag of USUIUC/CATHU (US)
ManufacturerUIUC/CATHU
MissionDecayed Amateur Technology
Bus & MotorCUBESAT 1.5U, Unknown motor
Mass3.52 kg wet, 1.5 kg dry
Launch date (UTC)
2018-12-16 (6 years ago)
Launch vehicle
ELECTRON
Launch site
Rocket Lab Launch Complex (RLLC)
Object typeUnknown
Shape & HBRBox, 0.3 m
Radar Cross Section0.020 m², Small (<0.1 m²)

Expand to show TLE details & history

TLE from 6 months ago
0 OBJECT K
1 43858U 18104K   24184.45598918  .13534512 -15221-5  22955-3 0  9997
2 43858  84.9788 261.7450 0015541 269.2542  90.6986 16.46849517309589
Epoch: 2024-07-02T10:56Z
Definitive object data (Epoch: 2024-07-02T10:56:37.465Z)
Latitude-0.00003°
Longitude176.61335°
Altitude151.105 km
Speed7.815 km/s
True Right ascension17h 26m 58s
True Declination0° 00' 00"
Sunlit
Object was in full shadow at TLE epoch
Visualization observer readout
Observer readout values are unavailable because the object's trajectory could not be propagated. This is usually caused when the trajectory data is faulty or the object's orbit has decayed.
Visualization observer readout
Observer readout values are unavailable because the object's trajectory could not be propagated. This is usually caused when the trajectory data is faulty or the object's orbit has decayed.
Orbital elements
Apogee altitude154.49 km
Perigee altitude134.217 km
Semi-major axis6,522.49 km
Eccentricity0.0015541
Inclination84.9788°
RAAN261.745°
Arg. of periapsis269.2542°
True anomaly90.87667°
Mean anomaly90.6986°
Eccentric anomaly90.78763°
Mean motion4.12024 °/min
BSTAR0.00022955
Orbital period87.37 mins
Loading maneuver chart data...

OBJECT K Visibility forecast

Observer location: undefined°, undefined

This satellite is decayed
Span
Click to sort rows by Start time (UTC) header in descending order
Start Az.
Max El. time (UTC)
Max El. Az.
Max El.
End time (UTC)
End Az.
|